    Orbital elements:
    2019 AP3                                                 Earth MOID = 0.1595 AU
    Epoch 2019 Apr. 27.0 TT = JDT 2458600.5                 MPC
    M   8.94048              (2000.0)            P               Q
    n   0.25655965     Peri.   54.95268     -0.99712936     +0.06859128
    a   2.4528848      Node   128.95859     -0.07561029     -0.92448317
    e   0.5302055      Incl.    2.36345     +0.00401617     -0.37500148
    P   3.84           H   20.6           G   0.15           U   0
    Residuals in seconds of arc
    150122 F51  0.0   0.1-    190305 703  0.0   0.3+    190409 T05  0.2+  0.0
    150122 F51  0.0   0.0     190305 703  0.1-  0.0     190409 T05  0.0   0.1-
    150122 F51  0.0   0.4-    190305 703  0.0   0.1-    190409 F51  0.0   0.1-
    150122 F51  0.3-  0.0     190305 703  0.1+  0.1-    190409 F51  0.0   0.1-
    150124 F51  0.2+  0.3-    190306 W88  0.6-  0.7-    190409 F51  0.0   0.1-
    150124 F51  0.8+  0.5-    190306 W88  0.1-  0.1-    190409 F51  0.0   0.1-
    150618 F51  0.2+  0.0     190306 D29  0.2+  0.1-    190409 168  1.0-  0.4-
    150618 F51  0.5-  0.1-    190306 D29  0.1+  0.1-    190409 168  0.3-  0.2+
    150618 F51  0.1-  0.1+    190306 D29  0.0   0.1-    190409 168  0.4-  0.5+
    190103 F51  0.0   0.0     190311 L18  1.1+  0.8+    190409 160  0.3-  0.9+
    190103 F51  0.0   0.0     190311 L18  0.3+  0.0     190409 160  0.4-  0.4+
    190103 F51  0.0   0.0     190311 L18  0.8+  0.6-    190409 160  0.0   0.1-
    190103 F51  0.0   0.0     190311 L18  0.2-  1.4-    190410 G96  0.1-  0.1-
    190104 511  1.6-  0.2-    190313 323  0.2+  0.1+    190410 G96  0.2-  0.2-
    190104 511  1.5-  1.0+    190313 323  0.0   0.1+    190410 G96  0.1-  0.2+
    190104 511  1.1-  0.2+    190314 T08  0.2+  0.4-    190410 G96  0.6+  0.6+
    190104 511  0.9-  0.5+    190314 T08  0.1-  0.1-    190411 T08  0.0   0.2-
    190104 511  1.6-  1.2+    190314 T08  0.0   0.1-    190411 T08  0.2-  0.3+
    190104 511  0.5-  0.2+    190314 T08  0.1+  0.1+    190411 T08  0.6+  0.3+
    190104 568  0.1+  0.1-    190314 323  0.1-  0.1+    190411 T08  0.2-  0.3-
    190104 568  0.1+  0.1-    190314 323  0.0   0.1+    190411 T08  0.5+  0.4+
    190104 568  0.0   0.0     190315 703  0.0   0.2-    190411 T08  0.4-  0.2-
    190105 H21  0.3-  0.1+    190315 703  0.0   0.1+    190411 T08  3.1+  3.2+
    190105 H21  0.0   0.1+    190315 703  0.2+  0.2-    190413 122  0.6-  0.8+
    190105 H21  0.0   0.3+    190315 703  0.2-  0.1-    190413 122  0.6-  0.5+
    190106 L01  0.3+  0.7+    190317 691  0.2+  0.8+    190413 122  0.6-  0.4+
    190106 L01  0.0   0.6+    190317 691  0.0   0.1+    190414 G40  0.0   0.0
    190106 L01  0.4-  0.3+    190317 691  0.0   0.1+    190414 G40  0.0   0.3-
    190107 291  0.1+  0.1+    190318 H21  0.0   0.2+    190414 G40  0.1-  0.0
    190107 291  0.1+  0.2-    190318 H21  0.0   0.2+    190414 703  2.2-  0.2+
    190107 291  0.0   0.1-    190318 H21  0.1+  0.2+    190414 703  1.2-  0.4-
    190112 691  0.1+  0.0     190318 T08  0.1+  0.0     190414 703  0.5-  0.1-
    190112 691  0.2-  0.5+    190318 T08  0.1-  0.1-    190414 703  0.4-  0.2+
    190112 691  0.1-  0.1-    190318 T08  0.3-  0.0     190414 C97  0.3-  2.0+
    190113 F51  0.0   0.0     190318 T08  0.0   0.1+    190414 C97  1.1-  1.0-
    190113 F51  0.0   0.1-    190319 204  0.3+  0.2+    190414 C97  1.0+  2.0-
    190113 F51  0.1+  0.0     190319 204  0.1-  0.2-    190415 I41  0.3+  0.4-
    190113 F51  0.0   0.1-    190319 204  0.2+  0.1-    190415 I41  0.9+  0.6-
    190119 G96  0.1-  0.1+    190320 K87  0.0   0.2+    190415 I41  0.6+  0.6-
    190119 G96  0.1+  0.8-    190320 K87  0.5-  0.1+    190415 I41  0.9+  0.6-
    190119 G96  0.0   0.0     190320 K87  0.0   0.1+    190415 I41  0.8+  0.6-
    190119 G96  0.3-  0.4-    190320 K87  0.4-  0.0     190415 I41  0.8+  0.6-
    190126 703  0.9-  0.1-    190323 H21  0.2-  0.1+    190415 T08  0.7-  0.4+
    190126 703  0.2+  0.6+    190323 H21  0.1+  0.1+    190415 T08  0.1-  0.1-
    190126 703  0.3+  0.1+    190323 H21  0.0   0.1+    190415 T08  0.3-  0.0
    190127 G96  0.1+  0.1+    190323 H21  0.1+  0.2+    190415 T08  0.1-  0.4-
    190127 G96  0.2-  0.1+    190323 Q62  0.2+  0.1-    190416 H21  0.2-  0.0
    190127 G96  0.0   0.1+    190323 Q62  0.2-  0.1-    190416 H21  0.8-  0.0
    190127 G96  0.0   0.1+    190323 Q62  0.0   0.0     190416 H21  0.1+  0.1-
    190127 T05  0.0   0.4-    190323 Q62  0.0   0.0     190416 H21  0.2-  0.1+
    190127 T05  0.5-  1.4+    190323 073  0.0   0.3-    190416 H21  0.0   0.1-
    190127 T05  0.4+  0.1+    190323 073  1.7+  0.5-    190416 I52  0.0   0.1-
    190127 T05  0.2+  0.0     190323 073  0.2+  0.3-    190416 I52  0.3-  0.1-
    190130 703  1.0-  0.1+    190324 160  0.7+  0.7-    190416 I52  0.3-  0.0
    190130 703  0.0   0.7-    190324 160  0.1+  0.1-    190416 I52  0.0   0.1-
    190130 703  0.2+  0.2-    190324 160  1.1+  0.1+    190417 T05  0.2-  0.2+
    190130 703  0.3-  0.5-    190325 D29  0.0   0.2-    190417 T05  0.2+  0.2+
    190204 G40  0.1+  0.2-    190325 D29  0.1+  0.1+    190417 T05  0.4-  0.1-
    190204 G40  0.0   0.0     190325 D29  0.5+  0.0     190417 T05  0.1+  0.3-
    190204 G40  0.2+  0.1-    190326 H21  0.2+  0.1+    190422 323  0.2+  0.5+
    190204 G40  0.4+  0.3-    190326 H21  0.1+  0.1+    190422 323  0.3+  0.2+
    190204 G40  0.1-  0.2-    190326 H21  0.1+  0.1+    190423 I41  0.6+  0.6-
    190205 G40  0.8+  0.3+    190326 T08  0.2+  0.1+    190423 I41  0.7+  0.6-
    190205 G40  0.0   0.2+    190326 T08  0.2+  0.1-    190423 I41  0.6+  0.6-
    190205 G40  0.2+  0.2+    190326 T08  0.5-  0.2-    190423 I41  0.5+  0.6-
    190206 204  0.3+  0.1-    190326 T08  0.0   0.1+    190423 I41  0.7+  0.7-
    190206 204  0.0   0.2-    190326 T08  0.3+  0.1-    190423 323  0.2+  0.9+
    190206 204  0.0   0.2+    190326 T08  0.2+  0.1-    190423 323  0.2+  1.4+
    190211 C95  0.7+  0.4+    190326 T08  0.3+  0.1+    190423 323  0.5-  0.7+
    190211 C95  2.5+  0.1+    190326 T08  0.0   0.2-    190423 323  0.3-  0.9+
    190211 C95  0.5+  0.3-    190326 D29  0.2-  0.0     190423 K87  0.2+  0.1-
    190211 C95  0.1+  0.0     190326 D29  0.1+  0.2+    190423 K87  0.3+  0.2-
    190211 G96  0.0   0.1-    190326 D29  0.1-  0.1+    190423 K87  0.2+  0.2-
    190211 G96  0.1+  0.1-    190326 168  0.3-  0.5+    190424 323  0.4-  0.1-
    190211 G96  0.1+  0.1-    190326 168  0.4-  0.5+    190424 323  0.5-  0.6-
    190211 G96  0.1+  0.1-    190326 168  0.4-  0.1+    190425 I41  0.1+  0.3-
    190211 323  0.8+  0.2+    190326 168  1.6-  0.5+    190425 I41  0.5+  0.6-
    190211 323  0.2+  0.3+    190326 168  0.5-  0.4+    190425 I41  0.2+  0.2-
    190212 I52  0.3+  0.7-    190327 H45  0.0   0.2-    190425 I41  0.5+  0.5-
    190212 I52  0.1-  0.2-    190327 H45  0.0   0.2-    190425 I41  0.6+  0.5-
    190212 I52  0.4+  0.3-    190327 H45  0.1-  0.4-    190425 I41  0.5+  0.5-
    190212 I52  0.1-  0.5-    190327 H45  0.2+  0.2-    190425 I41  0.5+  0.5-
    190212 V01  0.2+  0.1-    190327 H45  0.0   0.2-    190425 G96  0.0   0.0
    190212 V01  0.1+  0.5+    190327 H45  0.0   0.4-    190425 G96  0.0   0.1-
    190212 323  0.0   0.1+    190327 L04  0.2+  0.2-    190425 G96  0.1+  0.0
    190212 323  0.4+  0.1+    190327 L04  0.2-  0.2-    190425 G96  0.1-  0.1-
    190213 703  1.0-  0.5-    190327 L04  0.6-  0.1-    190425 I41  0.5+  0.5-
    190213 703  0.6-  0.5-    190327 A53  0.3+  0.7+    190425 323  0.1-  0.4+
    190213 703  0.1+  0.8+    190327 A53  0.6+  0.2+    190425 323  0.1-  0.1+
    190213 703  0.4-  1.0+    190327 A53  0.2+  0.7+    190426 703  0.0   0.2+
    190214 T08  0.4-  0.6+    190328 T05  0.3-  0.2+    190426 703  0.6-  0.3+
    190214 T08  0.3-  0.2-    190328 T05  0.2+  0.1+    190426 703  0.3+  0.1-
    190214 T08  0.4-  0.4+    190328 T05  0.0   0.1-    190426 323  0.6+  0.1-
    190214 T08  0.8+  0.1-    190328 T05  0.1+  0.2+    190426 323  0.4-  0.3+
    190214 A17  0.2+  0.2+    190329 G96  0.2-  0.2-    190427 323  0.8+  0.6-
    190214 B67  0.2-  0.3-    190329 G96  0.0   0.1-    190427 323  0.2+  0.1+
    190214 B67  0.3-  0.1-    190329 G96  0.2-  0.2-    190429 I41  0.5+  0.6-
    190214 A17  0.2+  0.3+    190329 G96  0.1-  0.1-    190429 I41  0.4+  0.5-
    190214 B67  0.4-  0.1-    190329 703  0.0   0.1-    190429 I41  0.5+  0.5-
    190214 A17  0.1+  0.1-    190329 703  0.1-  0.2-    190429 I41  0.4+  0.6-
    190218 C47  0.3+  0.2+    190329 703  0.2-  0.0     190429 323  0.4-  0.1+
    190218 C47  0.3+  0.1+    190329 703  1.0-  0.4+    190429 323  0.1+  0.5+
    190218 C47  0.0   0.1+    190329 323  0.0   0.1+    190501 703  0.1+  0.2+
    190224 C47  0.2-  0.1+    190329 323  0.2+  0.3+    190501 703  0.3-  0.1+
    190224 C47  0.1-  0.0     190329 323  0.7-  0.6+    190501 703  0.2+  0.0
    190224 C47  0.2+  0.0     190330 T08  0.1+  0.1+    190501 323  0.4-  0.1+
    190224 C47  0.2-  0.1-    190330 T08  0.1-  0.1+    190501 323  0.5-  0.3+
    190224 Z43  0.3+  0.3-    190330 T08  0.2+  0.1-    190501 C97  0.1+  0.1+
    190224 Z43  0.2-  0.1-    190330 T08  0.2+  0.1-    190501 C97  0.3-  0.6+
    190224 Z80  0.4-  0.4-    190330 323  0.1+  0.1+    190501 C97  0.4+  0.2+
    190224 Z43  0.1+  0.0     190330 323  0.3+  0.2+    190501 C97  0.1-  0.1+
    190224 Z80  0.4-  0.1-    190330 108  0.1-  0.7+    190502 G96  0.1+  0.0
    190224 Z43  0.3+  0.0     190330 108  0.0   0.0     190502 G96  0.0   0.0
    190224 Z43  0.0   0.1+    190330 108  0.9+  0.2-    190502 G96  0.0   0.0
    190224 Z80  0.4-  0.6+    190330 130  0.3-  0.3-    190502 G96  0.1-  0.1-
    190224 Z80  0.2-  0.3-    190330 130  0.0   0.1-    190502 323  0.1-  0.3+
    190225 Z99  0.0   0.2-    190330 130  0.5-  0.0     190502 323  0.1+  0.4+
    190225 Z99  0.1-  0.3-    190330 130  0.2-  0.5-    190502 D29  0.0   0.3+
    190226 Z99  0.2+  0.0     190401 703  0.0   0.4-    190502 D29  0.1+  0.3+
    190226 G96  0.1-  0.2-    190401 703  0.7-  0.2+    190502 D29  0.0   0.2+
    190226 G96  0.0   0.1-    190401 703  0.2+  0.3-    190503 323  0.3+  0.3+
    190226 G96  0.0   0.1-    190401 703  0.0   0.3-    190503 323  0.0   0.3+
    190226 G96  0.1-  0.2-    190403 H45  0.3-  0.0     190504 703  0.5-  0.3-
    190227 246  0.5-  0.2-    190403 H45  0.6-  0.1+    190504 703  0.6-  0.0
    190227 246  0.2+  0.3-    190403 H45  0.3-  0.0     190504 703  1.4+  1.0+
    190227 246  0.2+  0.3-    190403 H45  0.1-  0.1-    190504 703  0.6+  0.1-
    190227 246  0.2+  0.0     190403 H45  0.1-  0.0     190505 I52  0.2-  0.2+
    190227 246  0.1+  0.4-    190403 H45  0.1+  0.2-    190505 I52  0.4-  0.0
    190227 246  0.1-  0.3-    190403 T08  0.1-  0.2-    190505 I52  0.2-  0.2-
    190227 246  0.2-  0.3-    190403 T08  0.0   0.1-    190505 I52  0.3-  0.2-
    190227 A48  0.3-  0.3+    190403 T08  0.3-  0.2-    190515 I52  0.5-  0.3+
    190227 A48  0.0   0.2+    190403 T08  0.1+  0.1-    190515 I52  0.1-  0.5-
    190227 A48  0.4-  0.8+    190403 D29  0.2+  0.1+    190515 I52  0.2+  0.2-
    190227 A48  0.4+  0.8+    190403 D29  0.2+  0.1-    190524 I52  0.3+  0.1+
    190301 703  0.3-  0.1+    190403 D29  0.5+  0.7-    190524 I52  0.4-  0.1-
    190301 703  0.2+  0.0     190404 F51  0.0   0.1-    190524 I52  0.4+  0.7-
    190301 703  0.4-  0.8-    190404 F51  0.1-  0.1-    190524 I52  0.3-  0.6-
    190301 703  0.1+  0.0     190404 F51  0.1-  0.1-    190528 G96  0.0   0.0
    190301 323  0.0   0.3+    190404 F51  0.0   0.1-    190528 G96  0.2-  0.1+
    190301 323  0.1-  0.2+    190405 323  0.8-  0.8+    190528 G96  0.0   0.2+
    190302 T08  0.2+  0.1+    190405 323  0.6-  0.3+    190528 G96  0.2-  0.0
    190302 T08  0.2+  0.1-    190406 323  0.1-  0.2+    190530 I52  0.4+  0.3+
    190302 T08  0.2+  0.0     190406 323  0.5-  0.8+    190530 I52  0.1-  0.1+
    190302 T08  0.2+  0.1+    190409 703  0.3-  0.3-    190530 I52  0.2+  0.0
    190302 323  0.3+  0.9+    190409 703  0.2-  0.1-    190530 I52  0.3-  0.1+
    190302 323  0.6-  0.6+    190409 703  0.2+  0.0     190622 I52  0.6-  1.3+
    190302 323  0.4-  1.3+    190409 703  0.0   0.2-    190622 I52  1.1-  0.5-
    190302 323  0.6+  0.2+    190409 T05  0.1+  0.0     190622 I52  0.1+  0.0
    190303 323  0.1+  0.2-    190409 T05  0.1-  0.3-
    190303 323  0.2-  0.0     190409 T05  0.0   0.2-
    
